When you browse on this site, cookies collect data to enhance your experience and personalize the content and advertising you see.
Visit our Privacy Policy to learn more. By continuing to use the site, you agree to this use of cookies and data.
  • In Switzerland
  • List of Countries
  • For 7 days
  • Water Temperature
  • Weather Map
  • Weather Widgets
  • user-avatar
    Login

    Hourly Weather Albany

    Today, 6 June, Saturday

    Time Temperature Precipitation Wind Pressure Humidity
    00:00 +14°C° 0 mm 5 mps 765 mmHg 89%
    01:00 +14°C° 0 mm 4 mps 765 mmHg 90%
    02:00 +13°C° 0 mm 4 mps 764 mmHg 92%
    03:00 +13°C° 0 mm 4 mps 764 mmHg 92%
    04:00 +13°C° 0 mm 4 mps 765 mmHg 93%
    05:00 +13°C° 0 mm 4 mps 765 mmHg 93%
    06:00 +14°C° 0 mm 4 mps 765 mmHg 93%
    07:00 +14°C° 0 mm 5 mps 764 mmHg 93%
    08:00 +14°C° 0 mm 5 mps 764 mmHg 93%
    09:00 +15°C° 0 mm 5 mps 764 mmHg 85%
    10:00 +17°C° 0 mm 5 mps 764 mmHg 78%
    11:00 +19°C° 0 mm 5 mps 764 mmHg 71%
    12:00 +20°C° 0 mm 4 mps 764 mmHg 66%
    13:00 +20°C° 0 mm 4 mps 763 mmHg 62%
    14:00 +21°C° 0 mm 3 mps 762 mmHg 58%
    15:00 +20°C° 0 mm 3 mps 762 mmHg 60%
    16:00 +19°C° 0 mm 3 mps 762 mmHg 62%
    17:00 +19°C° 0 mm 3 mps 762 mmHg 64%
    18:00 +18°C° 0 mm 4 mps 762 mmHg 62%
    19:00 +18°C° 0 mm 4 mps 762 mmHg 59%
    20:00 +17°C° 0 mm 4 mps 762 mmHg 57%
    21:00 +18°C° 0 mm 4 mps 762 mmHg 54%
    22:00 +18°C° 0 mm 3 mps 762 mmHg 52%
    23:00 +18°C° 0 mm 3 mps 762 mmHg 49%

    Tomorrow, 7 June, Sunday

    Time Temperature Precipitation Wind Pressure Humidity
    00:00 +18°C° 0 mm 3 mps 762 mmHg 49%
    01:00 +18°C° 0 mm 2 mps 762 mmHg 50%
    02:00 +17°C° 0 mm 2 mps 761 mmHg 50%
    03:00 +17°C° 0 mm 2 mps 762 mmHg 50%
    04:00 +17°C° 0 mm 3 mps 762 mmHg 49%
    05:00 +17°C° 0 mm 3 mps 762 mmHg 49%
    06:00 +17°C° 0 mm 3 mps 762 mmHg 51%
    07:00 +16°C° 0 mm 3 mps 762 mmHg 53%
    08:00 +16°C° 0 mm 3 mps 762 mmHg 55%
    09:00 +17°C° 0 mm 3 mps 762 mmHg 52%
    10:00 +19°C° 0 mm 4 mps 762 mmHg 49%
    11:00 +21°C° 0 mm 4 mps 762 mmHg 45%
    12:00 +21°C° 0 mm 3 mps 762 mmHg 45%
    13:00 +22°C° 0 mm 3 mps 761 mmHg 45%
    14:00 +23°C° 0 mm 2 mps 761 mmHg 45%
    15:00 +21°C° 0 mm 2 mps 761 mmHg 49%
    16:00 +20°C° 0 mm 2 mps 761 mmHg 54%
    17:00 +18°C° 0 mm 2 mps 762 mmHg 59%
    18:00 +17°C° 0 mm 2 mps 762 mmHg 59%
    19:00 +16°C° 0 mm 2 mps 762 mmHg 59%
    20:00 +16°C° 0 mm 3 mps 762 mmHg 60%
    21:00 +14°C° 0 mm 3 mps 762 mmHg 60%
    22:00 +14°C° 0 mm 3 mps 762 mmHg 60%
    23:00 +13°C° 0 mm 3 mps 763 mmHg 61%

    Day after tomorrow, 8 June, Monday

    Time Temperature Precipitation Wind Pressure Humidity
    00:00 +13°C° 0 mm 3 mps 762 mmHg 61%
    01:00 +13°C° 0 mm 3 mps 762 mmHg 62%
    02:00 +12°C° 0 mm 3 mps 762 mmHg 63%
    03:00 +12°C° 0 mm 3 mps 762 mmHg 63%
    04:00 +12°C° 0 mm 3 mps 762 mmHg 64%
    05:00 +12°C° 0 mm 3 mps 762 mmHg 64%
    06:00 +12°C° 0 mm 3 mps 762 mmHg 64%
    07:00 +12°C° 0 mm 3 mps 762 mmHg 65%
    08:00 +12°C° 0 mm 3 mps 763 mmHg 65%
    09:00 +14°C° 0 mm 4 mps 763 mmHg 60%
    10:00 +17°C° 0 mm 4 mps 763 mmHg 54%
    11:00 +19°C° 0 mm 4 mps 763 mmHg 49%
    12:00 +20°C° 0 mm 3 mps 762 mmHg 48%
    13:00 +21°C° 0 mm 3 mps 762 mmHg 47%
    14:00 +22°C° 0 mm 3 mps 761 mmHg 46%
    15:00 +20°C° 0 mm 2 mps 761 mmHg 52%
    16:00 +19°C° 0 mm 2 mps 761 mmHg 58%
    17:00 +18°C° 0 mm 1 mps 762 mmHg 65%
    18:00 +16°C° 0 mm 1 mps 762 mmHg 69%
    19:00 +15°C° 0 mm 1 mps 762 mmHg 73%
    20:00 +14°C° 0 mm 1 mps 762 mmHg 77%
    21:00 +14°C° 0 mm 1 mps 762 mmHg 79%
    22:00 +14°C° 0 mm 1 mps 762 mmHg 80%
    23:00 +14°C° 0 mm 2 mps 762 mmHg 82%

    9 June, Tuesday

    Time Temperature Precipitation Wind Pressure Humidity
    00:00 +13°C° 0 mm 2 mps 762 mmHg 80%
    01:00 +13°C° 0 mm 2 mps 762 mmHg 79%
    02:00 +13°C° 0 mm 2 mps 762 mmHg 77%
    03:00 +13°C° 0 mm 2 mps 762 mmHg 76%
    04:00 +12°C° 0 mm 2 mps 762 mmHg 75%
    05:00 +12°C° 0 mm 2 mps 762 mmHg 75%
    06:00 +12°C° 0 mm 2 mps 762 mmHg 74%
    07:00 +12°C° 0 mm 2 mps 762 mmHg 73%
    08:00 +12°C° 0 mm 2 mps 763 mmHg 72%
    09:00 +14°C° 0 mm 2 mps 762 mmHg 65%
    10:00 +16°C° 0 mm 3 mps 762 mmHg 58%
    11:00 +18°C° 0 mm 3 mps 762 mmHg 52%
    12:00 +19°C° 0 mm 2 mps 762 mmHg 49%
    13:00 +20°C° 0 mm 2 mps 761 mmHg 46%
    14:00 +21°C° 0 mm 2 mps 761 mmHg 44%
    15:00 +20°C° 0 mm 2 mps 761 mmHg 49%
    16:00 +18°C° 0 mm 2 mps 761 mmHg 55%
    17:00 +17°C° 0 mm 2 mps 761 mmHg 60%
    18:00 +16°C° 0 mm 2 mps 761 mmHg 61%
    19:00 +15°C° 0 mm 2 mps 761 mmHg 62%
    20:00 +14°C° 0 mm 2 mps 762 mmHg 63%
    21:00 +14°C° 0 mm 2 mps 761 mmHg 62%
    22:00 +13°C° 0 mm 3 mps 761 mmHg 61%
    23:00 +13°C° 0 mm 3 mps 761 mmHg 60%

    10 June, Wednesday

    Time Temperature Precipitation Wind Pressure Humidity
    00:00 +12°C° 0 mm 3 mps 761 mmHg 60%
    01:00 +12°C° 0 mm 3 mps 761 mmHg 60%
    02:00 +12°C° 0 mm 3 mps 761 mmHg 59%
    03:00 +12°C° 0 mm 3 mps 760 mmHg 58%
    04:00 +12°C° 0 mm 3 mps 760 mmHg 57%
    05:00 +12°C° 0 mm 3 mps 760 mmHg 56%
    06:00 +12°C° 0 mm 3 mps 760 mmHg 55%
    07:00 +12°C° 0 mm 3 mps 760 mmHg 53%
    08:00 +13°C° 0 mm 4 mps 760 mmHg 52%
    09:00 +15°C° 0 mm 4 mps 759 mmHg 49%
    10:00 +17°C° 0 mm 4 mps 759 mmHg 46%
    11:00 +19°C° 0 mm 4 mps 759 mmHg 42%
    12:00 +20°C° 0 mm 4 mps 758 mmHg 42%
    13:00 +21°C° 0 mm 4 mps 758 mmHg 41%
    14:00 +22°C° 0 mm 4 mps 757 mmHg 40%
    15:00 +21°C° 0 mm 3 mps 757 mmHg 44%
    16:00 +20°C° 0 mm 3 mps 757 mmHg 48%
    17:00 +18°C° 0 mm 3 mps 757 mmHg 52%
    18:00 +18°C° 0 mm 3 mps 757 mmHg 50%
    19:00 +17°C° 0 mm 4 mps 757 mmHg 48%
    20:00 +17°C° 0 mm 4 mps 757 mmHg 46%
    21:00 +16°C° 0 mm 5 mps 756 mmHg 44%
    22:00 +16°C° 0 mm 5 mps 756 mmHg 43%
    23:00 +16°C° 0 mm 5 mps 755 mmHg 41%

    11 June, Thursday

    Time Temperature Precipitation Wind Pressure Humidity
    00:00 +16°C° 0 mm 5 mps 755 mmHg 41%
    01:00 +16°C° 0 mm 5 mps 754 mmHg 40%
    02:00 +16°C° 0 mm 5 mps 754 mmHg 39%
    03:00 +16°C° 0 mm 5 mps 754 mmHg 40%
    04:00 +16°C° 0 mm 5 mps 753 mmHg 40%
    05:00 +16°C° 0 mm 5 mps 753 mmHg 40%
    06:00 +16°C° 0 mm 5 mps 752 mmHg 43%
    07:00 +16°C° 0 mm 5 mps 752 mmHg 46%
    08:00 +16°C° 0 mm 5 mps 752 mmHg 49%
    09:00 +16°C° 0 mm 7 mps 751 mmHg 55%
    10:00 +17°C° 0 mm 8 mps 751 mmHg 61%
    11:00 +18°C° 0 mm 10 mps 750 mmHg 67%
    12:00 +19°C° 0 mm 9 mps 750 mmHg 66%
    13:00 +21°C° 0 mm 8 mps 749 mmHg 65%
    14:00 +22°C° 0 mm 7 mps 748 mmHg 63%
    15:00 +21°C° 0.2 mm 7 mps 748 mmHg 68%
    16:00 +20°C° 0.2 mm 6 mps 748 mmHg 73%
    17:00 +19°C° 0.2 mm 6 mps 748 mmHg 77%
    18:00 +17°C° 0.1 mm 6 mps 748 mmHg 80%
    19:00 +16°C° 0.1 mm 6 mps 748 mmHg 83%
    20:00 +16°C° 0.1 mm 6 mps 748 mmHg 86%
    21:00 +15°C° 0.1 mm 7 mps 748 mmHg 87%
    22:00 +15°C° 0.1 mm 7 mps 748 mmHg 88%
    23:00 +15°C° 0.1 mm 7 mps 748 mmHg 88%
    Show more